DW0333 Tranby-Lier NO current weather conditions

sailwx.info

Wind from 028

Air temperature 10.6° C
Dewpoint 8.1° C

Last reported at 2016-Aug-28 07:42 UTC.
Time now 2016-Aug-28 08:45 UTC

Location: N 59°50' E 010°17'.
View on Google Maps.

See reports from other nearby stations

  
Tides and Currents Weather Stations Pressure Air Temp Water Temp Dewpoint Dewpoint Depression Visibility Wind Speed Wind Dir Waves Ship Positions
date/time (UTC)wind fromknots sea level pressurealtimeterstation pressurevisibilityair tempwater tempwave heightnotes
2016-Aug-28 07:42 028 10.6
2016-Aug-28 07:27 345 0 10.0
2016-Aug-28 07:12 061 1 10.0
2016-Aug-28 06:57 009 1 10.0
2016-Aug-28 06:41 026 1 10.0
2016-Aug-28 06:27 069 2 10.0
2016-Aug-28 06:12 098 1 10.0
2016-Aug-28 05:56 049 1 10.0
2016-Aug-28 05:41 012 2 10.0
2016-Aug-28 05:26 034 1 10.0
2016-Aug-28 05:11 005 0 10.0
2016-Aug-28 04:56 313 0 10.0
2016-Aug-28 04:41 360 0 10.0
2016-Aug-28 04:26 016 0 10.0
2016-Aug-28 04:09 048 0 10.0
2016-Aug-28 03:54 057 0 10.0
2016-Aug-28 03:38 044 0 10.6
2016-Aug-28 03:24 035 1 10.6
2016-Aug-28 03:08 023 1 10.0
2016-Aug-28 02:52 306 1 10.6
2016-Aug-28 02:37 321 2 10.6
2016-Aug-28 02:22 326 1 10.6
2016-Aug-28 02:08 322 2 10.6
2016-Aug-28 01:51 357 2 11.1
2016-Aug-28 01:37 321 2 11.1
2016-Aug-28 01:21 302 2 11.1
2016-Aug-28 01:06 310 2 11.1
2016-Aug-28 00:51 341 2 11.7
2016-Aug-28 00:36 323 2 11.7
2016-Aug-28 00:21 319 1 11.7
2016-Aug-28 00:06 314 2 11.7
2016-Aug-27 23:49 326 1 11.7
2016-Aug-27 23:34 344 0 11.7
2016-Aug-27 23:21 310 0 11.7
2016-Aug-27 23:04 333 0 11.7
2016-Aug-27 22:48 022 0 12.2
2016-Aug-27 22:33 335 0 12.2
2016-Aug-27 22:18 334 0 12.2
2016-Aug-27 22:02 314 2 12.2
2016-Aug-27 21:47 330 1 12.2
2016-Aug-27 21:32 326 1 12.2
2016-Aug-27 21:17 313 1 12.2
2016-Aug-27 21:02 001 12.2
2016-Aug-27 20:47 004 0 12.8
2016-Aug-27 20:32 307 0 12.8
2016-Aug-27 20:16 323 0 12.8
2016-Aug-27 20:02 349 0 12.8
2016-Aug-27 19:46 020 0 13.3
2016-Aug-27 19:32 005 0 13.3
2016-Aug-27 19:17 008 0 13.3
2016-Aug-27 18:59 358 0 13.9
2016-Aug-27 18:46 345 0 14.4
2016-Aug-27 18:29 321 0 15.0
2016-Aug-27 18:13 311 0 15.6
2016-Aug-27 17:58 344 16.7
2016-Aug-27 17:43 318 1 16.7
2016-Aug-27 17:29 292 2 17.2
2016-Aug-27 17:13 221 4 17.8
2016-Aug-27 16:57 304 2 18.3
2016-Aug-27 16:42 283 3 18.3
2016-Aug-27 16:27 243 4 18.3
2016-Aug-27 16:12 223 4 18.3
2016-Aug-27 15:56 188 3 18.3
2016-Aug-27 15:41 251 4 17.8
2016-Aug-27 15:27 300 4 17.2
2016-Aug-27 15:11 166 6 17.8
2016-Aug-27 14:56 263 5 17.8
2016-Aug-27 14:41 265 4 18.3
2016-Aug-27 14:27 194 5 18.3
2016-Aug-27 14:12 230 5 18.3
2016-Aug-27 13:57 255 4 18.3
2016-Aug-27 13:41 273 5 17.8
2016-Aug-27 13:27 241 5 17.2
2016-Aug-27 13:09 244 5 16.7
2016-Aug-27 12:53 258 5 17.2
2016-Aug-27 12:38 252 4 17.8
2016-Aug-27 12:23 277 5 17.8
2016-Aug-27 12:08 267 6 17.8
2016-Aug-27 11:52 244 4 17.8
2016-Aug-27 11:37 230 6 17.8
2016-Aug-27 11:23 245 6 17.8
2016-Aug-27 11:07 275 5 17.8
2016-Aug-27 10:51 307 5 17.8
2016-Aug-27 10:37 308 5 17.8
2016-Aug-27 10:21 241 3 17.2
2016-Aug-27 10:06 281 6 16.7
2016-Aug-27 09:51 296 5 17.2
2016-Aug-27 09:36 253 5 16.7
2016-Aug-27 09:21 235 6 16.1
2016-Aug-27 09:06 335 6 15.6
2016-Aug-27 08:51 304 7 15.6
2016-Aug-27 08:34 246 6 15.0
2016-Aug-27 08:19 286 5 15.0
2016-Aug-27 08:04 279 4 14.4
2016-Aug-27 07:48 266 6 14.4
2016-Aug-27 07:33 246 3 13.9
2016-Aug-27 07:18 251 3 13.3
2016-Aug-27 07:03 267 4 12.8
2016-Aug-27 06:48 249 3 12.2
2016-Aug-27 06:32 185 0 11.7
2016-Aug-27 06:16 166 0 11.1
2016-Aug-27 06:02 193 1 10.6
2016-Aug-27 05:47 252 3 10.6
2016-Aug-27 05:33 233 1 11.1
2016-Aug-27 05:16 232 3 11.7
2016-Aug-27 05:02 241 4 11.7
2016-Aug-27 04:46 246 5 11.7
2016-Aug-27 04:29 230 6 11.1
2016-Aug-27 04:17 238 5 10.6
2016-Aug-27 04:02 190 3 10.6
2016-Aug-27 03:46 148 3 10.6
2016-Aug-27 03:28 238 1 10.0
2016-Aug-27 03:14 050 2 10.6
2016-Aug-27 02:59 261 1 11.1
2016-Aug-27 02:42 177 5 11.1
2016-Aug-27 02:27 271 6 11.1
2016-Aug-27 02:13 231 6 11.7
2016-Aug-27 01:58 279 6 11.7
2016-Aug-27 01:43 254 6 11.7
2016-Aug-27 01:26 240 4 11.1
2016-Aug-27 01:11 223 3 11.1
2016-Aug-27 00:57 258 3 11.1
2016-Aug-27 00:26 224 3 10.6
2016-Aug-27 00:12 207 2 10.6
2016-Aug-26 23:56 267 1 10.6
2016-Aug-26 23:41 258 2 11.1
2016-Aug-26 23:26 217 2 11.1
2016-Aug-26 23:11 231 0 11.1
2016-Aug-26 22:54 203 11.1
2016-Aug-26 22:38 161 0 11.7
2016-Aug-26 22:23 170 0 11.7
2016-Aug-26 22:08 230 0 11.7
2016-Aug-26 21:52 128 12.2
2016-Aug-26 21:37 136 0 12.2
2016-Aug-26 21:22 136 0 12.8
2016-Aug-26 21:07 236 0 12.8
2016-Aug-26 20:51 217 0 13.3
2016-Aug-26 20:37 192 1 13.3
2016-Aug-26 20:22 254 2 13.9
2016-Aug-26 20:06 256 6 14.4
2016-Aug-26 19:52 240 7 14.4
2016-Aug-26 19:36 217 6 14.4
2016-Aug-26 19:21 196 6 15.0
2016-Aug-26 19:06 259 7 15.6
2016-Aug-26 18:51 251 7 15.6
2016-Aug-26 18:34 207 7 16.1
2016-Aug-26 18:21 225 7 16.1
2016-Aug-26 18:04 212 8 16.7
2016-Aug-26 17:48 212 9 16.7
2016-Aug-26 17:33 201 7 17.2
2016-Aug-26 17:18 236 9 17.2
2016-Aug-26 17:03 257 7 18.3
2016-Aug-26 16:48 181 8 18.3
2016-Aug-26 16:32 173 6 18.3
2016-Aug-26 16:17 263 8 18.9
2016-Aug-26 16:02 254 6 18.9
2016-Aug-26 15:46 170 8 18.9
2016-Aug-26 15:32 234 8 18.9
2016-Aug-26 15:17 192 8 18.3
2016-Aug-26 15:02 236 5 17.8
2016-Aug-26 14:46 178 5 17.2
2016-Aug-26 14:33 179 6 17.8
2016-Aug-26 14:16 217 6 17.2
2016-Aug-26 13:59 174 6 17.2
2016-Aug-26 13:46 138 6 16.7
2016-Aug-26 13:32 184 6 16.7
2016-Aug-26 13:14 135 7 16.1
2016-Aug-26 12:58 108 6 16.1
2016-Aug-26 12:43 101 6 15.6
2016-Aug-26 12:28 109 8 15.6
2016-Aug-26 12:13 117 7 15.6
2016-Aug-26 11:57 073 6 15.6
2016-Aug-26 11:42 128 6 15.6
2016-Aug-26 11:28 136 8 15.6
2016-Aug-26 11:12 144 6 15.6
2016-Aug-26 10:56 158 6 15.6
2016-Aug-26 10:41 121 6 15.6
2016-Aug-26 10:26 129 6 15.6
2016-Aug-26 10:12 126 6 15.6
2016-Aug-26 09:56 107 4 16.1
2016-Aug-26 09:41 105 4 16.1
2016-Aug-26 09:26 106 4 16.1
2016-Aug-26 09:11 115 4 16.1
2016-Aug-26 08:56 108 3 16.1
2016-Aug-26 08:39 079 3 16.1
2016-Aug-26 08:24 117 3 15.6
2016-Aug-26 08:09 083 3 15.6